Location: Cheyres
(46.8153°N, 6.7877°E)
Time: 00:22:57
(UTC+00:00)

NOSS 3-3 (A) - Pass Details

Date: 11 May 2021
Orbit: 810 x 1402 km, 63.4° (Epoch: 06 June)

Event Time Altitude Azimuth Distance (km) Brightness Sun altitude
Rises 19:30:32 0° 192° (SSW) 3,361 6.6 -5.9°
Reaches altitude 10° 19:33:01 10° 184° (S) 2,471 5.8 -6.2°
Maximum altitude 19:38:16 40° 117° (ESE) 1,321 4.3 -6.9°
Drops below altitude 10° 19:44:09 10° 50° (NE) 2,775 6.3 -7.7°
Sets 19:47:04 0° 43° (NE) 3,825 7.0 -8.1°
